ASTRA 4A (SIRIUS 4)

Last updated on Jan. 15, 2021, 6:30 a.m. UTC

1 32299U 07057A   21014.88938203  .00000025  00000-0  00000-0 0  9990
2 32299   0.0355 306.7001 0002331 344.0021 148.8232  1.00270575 31841
UTC
Height (km)
Latitude
Longitude
Inclination
Orbital Period
UTC large
Height (km)
Speed (km/s)
/
Latitude / Longitude
Inclination (degrees)
Orbital Period (minutes)
Azimuth
Elevation
Range (km)
Doppler Factor
iOS Compass Heading
iOS Angle

Next 30 passes for location: Hong Kong

Rise time Rise Azimuth (degrees) Set time Set Azimuth (degrees) Duration Max altitude (degrees)

No matching passes for this satellites